Precipitable_Water
1.39 1.41 1.45 1.49 1.49 1.56 1.53 1.52 1.58 1.53 1.52 1.54 1.50 1.45 1.42 1.44 1.50 1.51 1.56 1.63 1.67 1.71 1.71 1.72 1.76 1.73 1.71 1.66 1.63 1.58 1.51 1.45 1.44 1.44 1.45 1.46 1.48 1.48 1.45 1.47 1.50 1.54
1.35 1.38 1.44 1.49 1.49 1.55 1.57 1.55 1.58 1.55 1.52 1.58 1.60 1.59 1.56 1.55 1.53 1.52 1.52 1.56 1.62 1.66 1.68 1.68 1.72 1.73 1.73 1.69 1.68 1.57 1.50 1.49 1.44 1.46 1.41 1.42 1.42 1.50 1.47 1.48 1.50 1.55
1.30 1.32 1.36 1.38 1.42 1.47 1.53 1.57 1.58 1.61 1.58 1.56 1.65 1.66 1.66 1.66 1.64 1.58 1.56 1.60 1.65 1.64 1.65 1.65 1.64 1.68 1.74 1.73 1.75 1.69 1.57 1.52 1.45 1.47 1.46 1.42 1.41 1.44 1.49 1.52 1.51 1.53
1.28 1.31 1.34 1.37 1.41 1.44 1.53 1.55 1.55 1.58 1.62 1.59 1.58 1.66 1.69 1.72 1.73 1.70 1.62 1.63 1.62 1.66 1.70 1.66 1.62 1.63 1.65 1.69 1.70 1.70 1.68 1.63 1.56 1.53 1.48 1.48 1.45 1.42 1.43 1.52 1.55 1.55
1.25 1.29 1.34 1.36 1.39 1.42 1.50 1.50 1.49 1.52 1.56 1.61 1.65 1.65 1.68 1.68 1.68 1.72 1.71 1.67 1.63 1.57 1.65 1.62 1.62 1.62 1.64 1.65 1.65 1.58 1.61 1.61 1.60 1.59 1.53 1.48 1.49 1.45 1.42 1.46 1.48 1.50
1.27 1.31 1.33 1.32 1.35 1.37 1.38 1.43 1.50 1.52 1.56 1.61 1.64 1.68 1.65 1.66 1.63 1.64 1.68 1.66 1.63 1.56 1.54 1.55 1.53 1.54 1.55 1.57 1.60 1.58 1.56 1.54 1.57 1.57 1.56 1.57 1.55 1.51 1.45 1.43 1.45 1.46
1.26 1.29 1.32 1.34 1.33 1.35 1.34 1.35 1.44 1.51 1.54 1.61 1.69 1.68 1.68 1.64 1.62 1.61 1.61 1.58 1.56 1.53 1.49 1.47 1.46 1.48 1.49 1.47 1.50 1.55 1.56 1.51 1.52 1.55 1.51 1.56 1.61 1.54 1.49 1.44 1.44 1.47
1.25 1.29 1.32 1.35 1.32 1.32 1.30 1.33 1.34 1.40 1.48 1.54 1.56 1.62 1.67 1.64 1.61 1.59 1.55 1.48 1.42 1.41 1.42 1.43 1.44 1.45 1.46 1.44 1.41 1.41 1.48 1.51 1.49 1.55 1.55 1.51 1.56 1.51 1.49 1.46 1.46 1.47
1.24 1.25 1.28 1.28 1.27 1.27 1.26 1.28 1.31 1.35 1.43 1.44 1.46 1.52 1.62 1.64 1.63 1.60 1.56 1.51 1.42 1.37 1.35 1.35 1.37 1.41 1.44 1.43 1.40 1.38 1.38 1.41 1.43 1.48 1.50 1.49 1.52 1.53 1.49 1.48 1.44 1.45
1.25 1.25 1.26 1.27 1.25 1.24 1.23 1.24 1.29 1.32 1.37 1.38 1.41 1.45 1.49 1.58 1.61 1.60 1.58 1.53 1.47 1.42 1.37 1.32 1.31 1.34 1.38 1.41 1.40 1.40 1.39 1.37 1.39 1.39 1.42 1.47 1.51 1.51 1.49 1.45 1.41 1.40
1.32 1.25 1.25 1.29 1.29 1.30 1.25 1.24 1.27 1.30 1.34 1.33 1.36 1.36 1.41 1.46 1.51 1.54 1.51 1.50 1.45 1.42 1.40 1.35 1.30 1.29 1.29 1.34 1.39 1.41 1.40 1.39 1.38 1.37 1.36 1.36 1.41 1.44 1.45 1.42 1.39 1.36
1.71 1.42 1.22 1.24 1.37 1.41 1.33 1.32 1.31 1.33 1.34 1.35 1.36 1.33 1.35 1.40 1.41 1.44 1.44 1.42 1.41 1.40 1.38 1.36 1.32 1.28 1.27 1.29 1.33 1.38 1.39 1.39 1.38 1.38 1.36 1.34 1.32 1.36 1.40 1.42 1.38 1.38
1.93 1.81 1.50 1.22 1.19 1.32 1.45 1.41 1.33 1.35 1.36 1.34 1.35 1.33 1.32 1.34 1.37 1.38 1.40 1.39 1.41 1.40 1.36 1.33 1.31 1.28 1.26 1.26 1.28 1.31 1.32 1.33 1.33 1.33 1.33 1.35 1.34 1.34 1.37 1.41 1.42 1.41
2.02 2.01 1.87 1.58 1.36 1.31 1.27 1.34 1.38 1.33 1.33 1.34 1.35 1.32 1.29 1.27 1.29 1.30 1.32 1.34 1.34 1.35 1.35 1.36 1.33 1.28 1.25 1.24 1.22 1.21 1.21 1.22 1.23 1.22 1.24 1.28 1.31 1.34 1.35 1.36 1.38 1.41
2.07 2.06 2.01 1.96 1.84 1.64 1.53 1.41 1.39 1.40 1.36 1.34 1.31 1.29 1.29 1.28 1.27 1.26 1.27 1.26 1.25 1.26 1.27 1.31 1.30 1.26 1.23 1.19 1.15 1.13 1.12 1.09 1.10 1.11 1.12 1.15 1.19 1.23 1.28 1.31 1.33 1.35
2.09 2.10 2.05 2.04 1.97 1.82 1.74 1.80 1.70 1.54 1.46 1.36 1.31 1.30 1.29 1.29 1.26 1.25 1.26 1.25 1.25 1.24 1.22 1.23 1.22 1.23 1.20 1.17 1.15 1.10 1.07 1.05 1.04 1.04 1.04 1.06 1.08 1.11 1.16 1.21 1.24 1.26
2.13 2.09 2.06 1.99 1.95 1.91 1.88 1.83 1.83 1.90 1.74 1.59 1.50 1.43 1.39 1.37 1.35 1.28 1.23 1.24 1.29 1.28 1.24 1.22 1.20 1.19 1.18 1.17 1.15 1.13 1.10 1.05 1.01 0.99 1.01 1.01 1.02 1.02 1.01 1.06 1.11 1.16
2.18 2.16 2.10 2.05 2.03 2.02 2.02 1.99 2.00 2.05 1.97 1.84 1.72 1.60 1.56 1.52 1.41 1.37 1.34 1.29 1.26 1.30 1.33 1.31 1.28 1.26 1.23 1.21 1.20 1.19 1.19 1.15 1.12 1.06 1.01 0.98 0.98 0.98 0.99 1.00 1.01 1.03
2.16 2.14 2.14 2.15 2.15 2.17 2.19 2.13 2.06 2.03 2.01 1.96 1.87 1.85 1.76 1.64 1.58 1.51 1.44 1.42 1.35 1.27 1.26 1.34 1.37 1.36 1.31 1.26 1.23 1.23 1.24 1.25 1.21 1.18 1.12 1.06 1.01 0.98 0.97 0.98 0.99 0.98
2.13 2.12 2.13 2.17 2.22 2.21 2.19 2.16 2.10 2.02 2.04 2.07 2.06 2.01 1.91 1.80 1.70 1.63 1.61 1.55 1.49 1.42 1.33 1.31 1.32 1.37 1.38 1.35 1.31 1.27 1.27 1.29 1.30 1.27 1.24 1.19 1.15 1.10 1.04 0.98 0.96 0.95
2.04 2.06 2.07 2.12 2.14 2.15 2.15 2.13 2.10 2.07 2.02 2.04 2.07 2.03 1.96 1.91 1.85 1.74 1.68 1.67 1.65 1.60 1.48 1.36 1.33 1.34 1.34 1.35 1.36 1.35 1.32 1.29 1.29 1.30 1.27 1.24 1.21 1.19 1.15 1.09 1.02 0.97
1.94 1.97 1.99 2.04 2.06 2.06 2.05 2.06 2.09 2.08 2.03 2.05 2.06 2.05 2.02 1.99 1.97 1.92 1.83 1.78 1.76 1.69 1.57 1.45 1.41 1.36 1.32 1.33 1.35 1.37 1.38 1.36 1.30 1.25 1.22 1.20 1.19 1.19 1.19 1.17 1.14 1.10
1.82 1.85 1.88 1.92 1.98 2.01 2.00 2.03 2.05 2.06 2.08 2.12 2.07 2.06 2.02 2.02 2.00 1.99 1.99 1.94 1.88 1.83 1.71 1.63 1.59 1.57 1.52 1.45 1.43 1.44 1.42 1.37 1.32 1.27 1.22 1.18 1.16 1.18 1.19 1.19 1.18 1.16
1.65 1.77 1.82 1.85 1.87 1.90 1.98 2.02 2.07 2.08 2.07 2.12 2.08 2.06 2.04 2.07 2.11 2.09 2.08 2.06 1.99 1.93 1.87 1.74 1.71 1.76 1.75 1.71 1.59 1.45 1.40 1.35 1.33 1.30 1.25 1.22 1.19 1.20 1.20 1.20 1.19 1.18
1.41 1.51 1.62 1.73 1.79 1.85 1.92 1.89 1.90 1.96 2.04 2.10 2.11 2.12 2.11 2.13 2.15 2.13 2.13 2.13 2.09 2.03 1.97 1.87 1.85 1.89 1.85 1.78 1.75 1.73 1.60 1.48 1.41 1.36 1.30 1.28 1.27 1.25 1.27 1.25 1.23 1.22
1.17 1.19 1.32 1.44 1.52 1.66 1.82 1.79 1.75 1.82 1.93 2.01 2.06 2.12 2.13 2.15 2.17 2.16 2.13 2.14 2.16 2.12 2.05 2.00 1.96 1.94 1.94 1.92 1.87 1.82 1.79 1.75 1.68 1.57 1.46 1.43 1.43 1.41 1.36 1.37 1.36 1.33
Wind_Speed
14 13 12 12 12 11 11 11 11 10 10 9 9 9 9 9 9 9 9 9 9 9 9 9 8 8 8 8 8 8 7 7 7 7 7 7 6 6 6 6 5 5
15 14 13 13 12 12 12 12 11 10 10 9 9 9 9 9 9 9 9 9 9 8 8 8 8 8 8 7 7 7 7 7 7 7 7 7 7 6 6 6 6 5
16 15 14 14 13 13 13 12 12 11 10 10 9 9 9 9 9 9 9 9 8 8 8 8 8 8 8 7 7 7 7 7 7 7 7 7 7 7 7 7 6 6
16 16 15 15 14 13 13 13 12 12 11 10 10 10 9 10 9 9 9 9 8 8 8 8 8 8 8 8 7 7 7 7 7 7 7 7 7 7 7 7 7 6
17 16 16 16 15 14 14 14 13 13 12 11 11 10 10 10 10 10 10 9 9 8 8 8 8 8 8 8 8 7 7 7 7 7 7 7 7 8 7 8 8 7
18 17 17 16 16 15 15 15 14 14 13 12 12 11 11 11 11 10 10 10 10 9 9 8 8 8 8 8 8 8 7 7 7 7 7 7 7 8 8 8 8 8
18 18 17 17 17 16 16 15 15 15 14 13 13 12 12 12 11 11 11 10 10 10 9 9 9 8 8 8 8 8 7 7 7 7 8 8 7 8 8 8 8 9
19 18 18 18 17 17 17 17 16 16 15 14 14 13 13 13 12 12 11 11 11 10 10 10 9 9 9 8 8 8 8 8 8 8 8 8 7 8 8 8 8 9
19 19 19 19 18 18 18 18 17 17 16 16 15 15 14 14 13 13 12 12 12 11 11 10 10 10 10 9 9 9 8 8 8 8 8 8 8 8 8 8 8 9
19 19 19 19 19 19 19 18 18 18 17 17 16 16 15 15 14 14 13 13 13 12 12 11 11 11 10 10 10 10 9 9 9 9 8 8 8 8 8 8 8 9
19 19 20 20 20 20 19 19 19 18 18 18 18 17 17 16 15 15 15 14 14 13 13 12 12 12 11 11 11 11 10 10 10 10 9 9 9 9 9 9 9 9
21 20 19 19 19 20 20 20 20 19 19 19 19 18 18 17 17 16 16 16 16 15 14 13 13 13 12 12 12 11 11 11 11 11 10 10 10 9 9 9 9 9
22 21 21 20 19 19 19 20 20 20 20 20 20 20 19 19 18 18 17 17 17 16 16 15 14 14 14 13 13 12 12 12 11 11 11 11 11 11 10 10 10 10
21 22 21 21 20 20 19 19 20 20 20 20 20 21 20 20 19 19 19 18 18 18 17 16 16 15 15 15 14 14 13 13 12 12 12 12 12 12 11 11 11 11
21 21 22 21 21 21 20 20 20 20 20 20 20 21 21 21 21 20 20 20 20 19 19 18 17 17 17 16 16 15 15 14 14 13 13 13 13 13 12 12 12 12
20 21 22 22 21 21 21 21 21 20 20 20 20 21 21 22 22 22 21 21 21 21 20 20 19 19 18 18 17 17 16 16 15 15 14 14 14 14 14 14 13 13
19 19 20 21 22 21 21 21 21 21 21 21 21 21 21 22 22 23 23 22 22 22 22 22 21 21 20 20 19 18 17 17 17 16 16 16 15 15 15 15 15 14
17 18 18 19 20 21 21 21 22 22 22 22 22 22 22 21 22 23 23 23 23 23 23 23 23 23 22 22 21 20 19 18 18 17 17 17 17 17 17 16 16 16
15 16 16 17 18 20 20 21 22 23 23 23 23 23 23 22 22 22 23 23 24 24 24 24 24 24 24 23 23 22 22 21 20 19 19 18 18 18 18 18 18 17
14 15 16 16 18 19 19 20 21 22 23 24 24 24 24 24 24 23 23 23 23 24 25 25 25 25 25 25 24 24 23 23 22 21 21 20 19 19 19 19 19 19
14 15 16 17 18 18 19 19 19 21 22 23 24 25 25 25 25 25 24 23 23 24 24 24 25 25 26 26 26 26 25 24 23 23 23 22 21 21 20 20 19 19
15 15 17 18 18 19 18 18 18 19 20 21 22 23 24 25 26 26 25 25 24 24 24 24 24 24 25 26 27 27 26 26 25 25 24 24 23 22 22 21 21 20
15 16 16 17 18 18 18 18 19 20 20 21 21 22 23 24 25 26 26 26 26 26 25 25 24 24 24 25 26 27 27 26 26 26 26 25 25 24 24 23 23 22
16 16 17 17 18 18 18 18 19 20 20 21 22 22 23 23 24 25 26 26 26 26 26 26 26 26 25 25 25 26 26 27 27 27 27 27 27 26 26 26 25 25
16 16 17 18 18 18 18 17 18 19 20 21 21 22 23 23 24 24 25 25 26 26 26 27 28 28 28 28 27 27 26 27 27 27 28 28 27 27 27 27 27 27
16 16 17 17 18 18 18 18 18 18 19 20 21 21 22 23 23 24 25 25 26 26 26 27 27 29 29 29 29 29 29 28 28 28 28 28 28 28 28 28 28 28
Wind_Direction
194 193 192 190 189 189 185 182 181 181 179 177 176 175 172 171 171 172 173 174 175 175 177 180 181 183 185 185 187 189 191 192 193 194 195 194 195 196 194 190 188 191
197 197 197 195 194 193 191 188 188 188 187 185 184 182 179 178 178 177 176 176 179 180 182 184 186 186 187 188 191 192 193 195 197 197 198 199 201 203 201 199 199 202
199 199 200 200 199 197 195 194 194 194 194 193 191 189 187 186 185 184 183 182 184 187 187 188 190 191 193 195 197 196 196 198 200 201 202 204 207 209 208 208 209 209
202 202 202 204 203 202 200 199 199 198 199 199 198 195 195 194 192 189 189 189 191 193 193 193 195 197 199 201 201 202 201 202 205 206 209 211 213 216 216 216 218 218
205 205 205 206 207 206 204 203 203 203 203 204 204 202 201 200 198 196 195 197 198 199 198 198 200 202 204 205 205 207 207 208 211 211 214 218 219 221 222 223 226 225
207 208 208 209 210 210 209 207 207 206 206 207 207 207 206 205 204 203 202 202 204 204 204 203 205 206 206 207 208 210 211 213 216 216 218 222 224 226 227 228 231 231
210 211 211 211 212 212 212 212 211 211 210 211 211 211 210 209 209 209 208 207 208 209 209 209 210 210 209 208 208 211 214 215 218 219 222 226 228 230 231 231 234 235
212 213 214 214 214 214 215 216 216 216 214 214 214 214 214 214 214 214 214 213 212 212 213 213 214 214 213 211 212 214 216 217 218 221 225 229 230 233 234 234 236 238
214 215 216 217 217 217 217 217 218 219 218 218 218 217 218 217 217 218 218 218 216 215 215 216 216 217 217 216 216 218 219 220 221 223 226 229 233 235 236 237 239 241
216 217 218 219 220 220 220 219 220 220 221 222 222 220 220 220 220 221 222 222 221 219 218 219 219 219 220 221 221 222 224 225 225 226 227 230 233 236 237 238 241 243
218 219 220 221 223 223 223 222 222 221 221 223 224 224 224 223 222 223 225 225 225 224 224 224 224 223 223 224 225 225 227 229 229 230 231 232 234 236 238 239 241 244
220 220 221 221 224 226 226 225 224 224 223 223 224 225 226 226 225 225 226 227 228 229 229 229 229 228 228 228 229 229 230 232 233 234 235 236 236 237 239 241 241 243
220 221 222 222 224 226 227 227 225 225 226 225 225 226 226 227 228 228 229 230 230 231 233 233 232 232 232 232 232 233 234 235 236 237 239 240 240 240 241 242 243 243
222 222 222 223 225 225 226 227 227 226 227 227 227 227 228 229 230 230 231 232 233 234 235 235 235 234 235 235 236 236 237 238 239 240 241 242 243 243 244 245 245 244
223 223 223 224 226 226 227 228 229 229 228 228 229 229 230 231 232 233 233 233 234 235 236 237 237 236 236 236 237 238 239 240 240 241 242 243 244 245 246 248 248 247
222 223 224 226 226 226 227 228 229 230 229 229 230 231 232 232 232 234 235 235 234 235 236 237 238 239 238 237 238 239 240 241 241 242 243 244 246 246 248 249 250 251
222 223 226 226 226 226 229 229 229 230 230 230 231 232 233 234 233 234 235 236 236 235 235 237 238 240 239 239 239 240 242 243 243 244 244 245 246 248 249 251 251 253
223 225 226 226 226 228 231 231 231 231 232 232 233 234 234 235 236 236 236 237 237 237 237 237 237 239 239 240 241 242 243 245 246 246 246 246 247 248 250 252 253 255
224 225 226 227 228 231 233 234 233 233 234 234 235 236 236 237 237 238 238 238 238 238 239 239 238 238 238 239 241 242 244 245 246 248 248 249 249 250 251 252 254 256
228 229 230 232 232 233 234 236 236 236 236 237 237 238 239 238 239 239 239 240 240 240 240 240 240 240 240 240 240 241 243 245 247 248 249 250 251 252 253 253 254 255
237 238 238 239 238 236 235 237 239 239 238 238 239 239 240 241 240 240 240 240 241 241 241 242 242 242 242 242 242 242 242 244 246 248 249 251 252 253 254 255 256 256
245 246 245 245 245 243 240 239 240 240 240 240 241 241 241 242 241 241 241 242 241 242 242 243 243 243 244 244 244 244 244 244 245 247 248 250 251 253 254 255 256 257
249 250 251 250 249 247 244 242 242 243 243 243 243 244 244 243 242 242 242 243 243 242 243 243 244 245 245 245 245 245 246 246 246 246 247 249 251 253 254 255 256 256
251 252 252 251 252 251 249 247 245 245 245 244 244 245 245 244 243 243 244 245 245 245 244 244 245 245 246 246 246 246 247 247 247 247 248 249 251 252 254 255 255 256
254 255 254 252 253 254 252 253 252 248 246 245 245 246 246 245 245 245 246 246 246 247 247 246 246 247 246 247 247 247 247 249 250 250 250 251 252 253 254 255 256 256
257 257 256 255 254 252 251 253 254 252 249 248 246 246 247 248 248 248 248 249 249 249 249 249 248 249 248 248 248 248 249 249 250 251 252 253 254 254 255 256 257 257